This is the latest recevied weather packets stored in our database for station/object N5XJB. If no packets are shown the sender has not sent any weather packets the latest 10 day(s).
| Time | Temp. | Humidity | Pressure | Rain* | Wind** | Luminosity | Snow |
|---|---|---|---|---|---|---|---|
| 1777317180 | 32.22° C | 64% | 1011.4 hPa | 0 mm | - | 338 W/m² | - |
| 1777316875 | 31.67° C | 64% | 1011.4 hPa | 0 mm | - | 713 W/m² | - |
| 1777316572 | 31.11° C | 65% | 1011.4 hPa | 0 mm | - | 507 W/m² | - |
| 1777316269 | 30.56° C | 65% | 1011.4 hPa | 0 mm | - | 350 W/m² | - |
| 1777315966 | 31.67° C | 65% | 1011.7 hPa | 0 mm | - | 291 W/m² | - |
| 1777315665 | 32.22° C | 64% | 1011.7 hPa | 0 mm | - | 559 W/m² | - |
| 1777315363 | 31.67° C | 65% | 1011.7 hPa | 0 mm | - | 457 W/m² | - |
| 1777315061 | 31.67° C | 65% | 1011.7 hPa | 0 mm | - | 258 W/m² | - |
| 1777314760 | 31.11° C | 67% | 1011.7 hPa | 0 mm | - | 888 W/m² | - |
| 1777314458 | 31.11° C | 67% | 1012.1 hPa | 0 mm | - | 250 W/m² | - |
| 1777314154 | 31.67° C | 66% | 1011.7 hPa | 0 mm | - | 392 W/m² | - |
| 1777313853 | 31.67° C | 66% | 1012.1 hPa | 0 mm | - | 351 W/m² | - |
| 1777313549 | 31.11° C | 65% | 1012.4 hPa | 0 mm | - | 608 W/m² | - |
| 1777313247 | 31.11° C | 68% | 1012.1 hPa | 0 mm | - | 265 W/m² | - |
| 1777312943 | 31.11° C | 69% | 1012.1 hPa | 0 mm | - | 308 W/m² | - |
| 1777312640 | 30.56° C | 68% | 1012.1 hPa | 0 mm | - | 362 W/m² | - |
| 1777312337 | 30.56° C | 68% | 1012.4 hPa | 0 mm | - | 289 W/m² | - |
| 1777312034 | 30.56° C | 69% | 1012.4 hPa | 0 mm | - | 368 W/m² | - |
| 1777311730 | 31.11° C | 68% | 1012.4 hPa | 0 mm | - | 354 W/m² | - |
| 1777311428 | 30.56° C | 70% | 1012.4 hPa | 0 mm | - | 843 W/m² | - |
| 1777311125 | 30.56° C | 72% | 1012.4 hPa | 0 mm | - | 347 W/m² | - |
| 1777310823 | 30° C | 73% | 1012.4 hPa | 0 mm | - | 649 W/m² | - |
| 1777310520 | 29.44° C | 73% | 1012.1 hPa | 0 mm | - | 536 W/m² | - |
| 1777310217 | 29.44° C | 72% | 1012.1 hPa | 0 mm | - | 676 W/m² | - |
| 1777309914 | 30° C | 73% | 1012.4 hPa | 0 mm | - | 522 W/m² | - |
* Rain latest hour (hover to see other rain measurements)
** Current wind speed in m/s (hover to see current wind gust speed)